Total_Precipitation_Accumulation
0.08 0.09 0.17 0.13 0.12 0.17 0.21 0.19 0.17 0.15 0.15 0.17 0.15 0.12 0.15 0.17 0.15 0.13 0.13 0.17 0.24 0.28 0.30 0.33 0.38 0.43 0.42 0.42 0.42 0.37 0.36 0.41 0.46 0.49 0.45 0.46 0.55 0.70 0.94 1.05 1.04 0.73 0.63
0.03 0.07 0.16 0.15 0.14 0.17 0.17 0.17 0.16 0.16 0.14 0.12 0.13 0.15 0.19 0.18 0.17 0.14 0.13 0.15 0.20 0.24 0.25 0.25 0.27 0.33 0.37 0.38 0.37 0.32 0.33 0.37 0.47 0.52 0.47 0.40 0.55 0.79 0.96 0.98 1.07 0.71 0.62
0.02 0.03 0.09 0.15 0.14 0.14 0.13 0.13 0.17 0.17 0.13 0.11 0.13 0.16 0.18 0.17 0.17 0.16 0.17 0.15 0.16 0.19 0.20 0.19 0.21 0.26 0.28 0.30 0.31 0.32 0.31 0.34 0.46 0.59 0.77 0.54 0.40 0.77 0.90 0.89 0.80 0.59 0.51
0.02 0.03 0.05 0.11 0.11 0.10 0.10 0.11 0.15 0.16 0.12 0.12 0.18 0.19 0.15 0.17 0.19 0.19 0.19 0.16 0.17 0.15 0.15 0.17 0.20 0.19 0.19 0.19 0.23 0.30 0.34 0.44 0.63 0.89 1.16 0.70 0.40 0.55 0.72 0.66 0.55 0.47 0.46
0.02 0.02 0.04 0.09 0.10 0.09 0.09 0.10 0.13 0.15 0.13 0.13 0.16 0.17 0.15 0.18 0.21 0.20 0.17 0.17 0.20 0.16 0.12 0.12 0.15 0.14 0.14 0.15 0.19 0.28 0.36 0.48 0.74 1.00 0.98 0.84 0.73 0.59 0.58 0.58 0.57 0.55 0.54
0.04 0.02 0.05 0.08 0.09 0.08 0.09 0.10 0.12 0.13 0.13 0.12 0.12 0.15 0.15 0.20 0.27 0.25 0.20 0.22 0.25 0.24 0.16 0.10 0.10 0.12 0.14 0.15 0.17 0.26 0.36 0.53 0.75 0.70 0.63 0.72 0.77 0.68 0.60 0.72 0.85 0.80 0.72
0.05 0.04 0.05 0.09 0.09 0.09 0.09 0.09 0.11 0.12 0.12 0.10 0.10 0.12 0.11 0.17 0.22 0.24 0.22 0.22 0.22 0.21 0.17 0.14 0.12 0.13 0.16 0.18 0.21 0.28 0.42 0.63 0.76 0.65 0.62 0.74 0.74 0.58 0.68 0.91 1.16 1.08 0.91
0.05 0.04 0.06 0.11 0.11 0.10 0.10 0.10 0.11 0.11 0.10 0.10 0.10 0.10 0.11 0.14 0.17 0.19 0.19 0.18 0.17 0.14 0.13 0.14 0.16 0.16 0.17 0.19 0.24 0.31 0.42 0.49 0.56 0.64 0.61 0.64 0.50 0.51 0.76 1.00 1.20 1.16 0.98
0.13 0.08 0.10 0.11 0.13 0.12 0.12 0.12 0.13 0.12 0.11 0.12 0.11 0.11 0.11 0.13 0.15 0.17 0.18 0.17 0.16 0.17 0.18 0.18 0.18 0.18 0.19 0.22 0.25 0.32 0.44 0.48 0.53 0.71 0.74 0.78 0.66 0.74 1.01 1.15 1.17 1.19 1.07
0.33 0.22 0.21 0.21 0.20 0.17 0.14 0.15 0.16 0.16 0.14 0.15 0.14 0.13 0.14 0.15 0.17 0.21 0.22 0.21 0.20 0.23 0.25 0.27 0.29 0.27 0.28 0.30 0.34 0.44 0.53 0.52 0.59 0.77 0.94 0.80 0.77 0.98 1.28 1.39 1.37 1.34 1.30
0.69 0.54 0.43 0.37 0.30 0.24 0.21 0.20 0.23 0.24 0.24 0.23 0.23 0.22 0.23 0.27 0.35 0.42 0.36 0.41 0.40 0.43 0.45 0.50 0.53 0.51 0.47 0.41 0.51 0.67 0.64 0.64 0.77 0.95 1.03 0.88 0.85 1.11 1.36 1.49 1.52 1.52 1.46
0.94 0.83 0.73 0.67 0.45 0.35 0.36 0.45 0.47 0.43 0.44 0.45 0.55 0.54 0.56 0.66 0.66 0.53 0.58 0.77 0.84 0.96 0.96 1.01 1.07 0.93 0.78 0.70 1.11 1.34 0.77 0.84 0.95 1.12 1.32 1.14 1.14 1.43 1.69 1.58 1.48 1.51 1.45
1.19 0.91 0.89 1.05 0.86 0.71 0.76 0.69 0.66 0.68 0.77 0.79 0.80 0.83 0.95 0.85 0.71 0.72 0.79 0.98 1.15 1.31 1.44 1.77 1.85 1.48 1.46 1.49 1.60 1.56 1.02 0.87 0.94 0.94 1.32 1.38 1.44 1.79 2.09 1.87 1.65 1.57 1.52
1.34 1.03 0.92 1.02 1.15 1.05 0.93 0.90 0.85 0.81 0.89 0.94 1.07 1.11 1.24 1.16 1.07 1.12 1.27 1.37 1.56 1.70 1.96 2.12 2.35 2.15 1.92 1.71 1.64 1.52 1.35 1.29 1.18 1.30 1.62 1.38 1.49 1.88 2.21 2.10 1.86 1.70 1.62
1.61 1.36 1.14 1.10 1.23 1.22 1.14 1.09 1.00 0.97 0.98 1.15 1.30 1.39 1.49 1.54 1.63 1.72 1.65 1.79 1.83 1.95 2.12 2.42 2.47 2.61 2.63 2.53 2.16 1.88 1.79 1.67 1.54 1.66 1.88 1.76 1.56 1.68 2.06 2.35 2.19 1.93 1.77
2.06 1.87 1.57 1.35 1.25 1.27 1.27 1.29 1.32 1.28 1.42 1.53 1.69 1.74 1.90 2.06 2.18 2.34 2.32 2.30 2.11 2.12 2.35 2.59 2.74 3.14 3.03 2.85 2.34 2.12 1.92 1.86 1.65 1.58 1.82 2.00 1.68 1.57 1.78 2.23 2.46 2.32 2.12
2.32 2.29 2.12 1.91 1.83 1.87 1.99 1.94 1.81 1.92 2.01 2.09 2.18 2.19 2.28 2.34 2.49 2.63 2.59 2.48 2.45 2.45 2.59 2.73 2.89 3.01 2.75 2.63 2.47 2.30 2.05 1.86 1.63 1.56 1.66 1.84 1.75 1.60 1.68 1.90 2.25 2.38 2.33
2.42 2.68 2.71 2.52 2.60 2.71 2.82 2.74 2.53 2.51 2.52 2.52 2.48 2.47 2.48 2.55 2.69 2.91 2.72 2.57 2.85 2.73 2.83 3.13 3.12 3.08 2.89 2.75 2.59 2.36 2.16 1.91 1.55 1.47 1.47 1.63 1.87 1.68 1.70 1.88 2.02 2.11 2.35
2.57 2.98 3.14 3.20 3.36 3.37 3.36 3.30 3.23 3.11 2.96 2.72 2.71 2.66 2.49 2.48 2.58 2.79 2.62 2.63 2.77 3.01 3.02 2.83 3.24 3.20 3.02 2.88 2.44 2.20 1.92 1.67 1.48 1.37 1.37 1.40 1.60 1.51 1.51 1.67 1.79 1.87 2.27
2.99 3.32 3.71 3.84 3.91 3.67 3.52 3.45 3.29 3.05 2.83 2.71 2.71 2.59 2.40 2.41 2.43 2.76 2.59 2.52 2.66 2.88 2.83 2.83 3.08 3.07 2.84 2.84 2.34 1.94 1.75 1.45 1.40 1.40 1.25 1.27 1.31 1.18 1.24 1.48 1.88 1.63 1.77
3.52 3.68 3.90 4.25 4.36 4.09 3.99 3.87 3.71 3.35 3.17 2.86 2.56 2.26 2.17 2.15 2.27 2.60 2.40 2.58 2.57 2.58 2.57 2.63 2.86 2.89 2.65 2.74 2.56 2.06 1.57 1.24 1.18 1.21 1.22 1.23 1.15 1.23 1.48 1.71 1.87 1.89 1.78
3.30 3.70 3.92 3.91 3.80 3.53 3.54 3.72 3.90 3.82 3.39 2.84 2.55 2.39 2.11 2.02 2.10 2.25 2.33 2.24 2.30 2.35 2.37 2.42 2.61 2.47 2.24 2.44 2.51 2.41 1.76 1.38 1.08 0.91 1.17 1.21 1.16 1.33 1.44 1.48 1.72 1.98 2.00
2.71 3.08 3.13 2.99 2.90 2.74 2.70 2.90 3.06 3.28 3.12 2.78 2.44 2.23 2.06 1.96 1.91 1.98 2.06 2.06 2.08 2.03 2.09 2.25 2.25 2.19 2.06 2.08 2.28 2.44 2.03 1.57 1.27 0.92 0.85 0.94 1.12 1.25 1.29 1.44 1.45 1.59 1.68
1.88 1.99 2.09 2.17 2.20 2.22 2.23 2.37 2.51 2.67 2.63 2.52 2.43 2.17 1.91 1.71 1.65 1.67 1.67 1.69 1.75 1.79 1.92 1.82 1.86 2.03 2.05 1.92 2.02 2.06 1.98 1.92 1.74 1.22 0.90 0.88 1.08 1.14 1.15 1.15 1.26 1.43 1.54
1.53 1.66 1.77 1.92 2.04 2.13 2.12 2.16 2.31 2.55 2.50 2.30 2.13 1.96 1.81 1.66 1.54 1.46 1.49 1.48 1.47 1.50 1.61 1.64 1.84 1.87 1.91 1.87 1.84 1.84 1.92 1.91 1.76 1.52 1.16 1.05 1.04 0.95 1.00 1.06 1.17 1.38 1.56
1.37 1.50 1.63 1.70 1.74 1.80 1.85 1.86 1.84 1.93 1.94 1.81 1.69 1.63 1.51 1.39 1.32 1.33 1.33 1.31 1.31 1.36 1.49 1.53 1.56 1.59 1.63 1.67 1.64 1.64 1.73 1.67 1.60 1.64 1.37 1.26 1.22 1.03 1.05 1.09 1.13 1.26 1.35